Time,TemperatureF,DewpointF,PressureIn,WindDirection,WindDirectionDegrees,WindSpeedMPH,WindSpeedGustMPH,Humidity,HourlyPrecipIn,Conditions,Clouds,dailyrainin,SoftwareType,DateUTC
2013-06-05 00:03:00,71.1,62.0,29.94,ESE,119,0.0,3.0,73,0.00,,---,0.00,VWS V13.01,2013-06-05 05:03:00,
2013-06-05 00:08:00,71.0,61.9,29.94,ESE,119,0.0,2.0,73,0.00,,---,0.00,VWS V13.01,2013-06-05 05:08:00,
2013-06-05 00:13:00,70.9,61.8,29.94,ESE,119,0.0,2.0,73,0.00,,---,0.00,VWS V13.01,2013-06-05 05:13:00,
2013-06-05 00:19:00,70.9,62.2,29.94,ESE,119,2.0,3.0,74,0.00,,---,0.00,VWS V13.01,2013-06-05 05:19:00,
2013-06-05 00:24:00,70.8,62.1,29.94,ESE,119,0.0,3.0,74,0.00,,---,0.00,VWS V13.01,2013-06-05 05:24:00,
2013-06-05 00:29:00,70.7,62.0,29.94,ESE,119,0.0,3.0,74,0.00,,---,0.00,VWS V13.01,2013-06-05 05:29:00,
2013-06-05 00:34:00,70.5,62.2,29.94,ESE,118,0.0,3.0,75,0.00,,---,0.00,VWS V13.01,2013-06-05 05:34:00,
2013-06-05 00:39:00,70.4,62.1,29.94,ESE,118,0.0,1.0,75,0.00,,---,0.00,VWS V13.01,2013-06-05 05:39:00,
2013-06-05 00:44:00,70.3,62.0,29.94,ESE,118,0.0,3.0,75,0.00,,---,0.00,VWS V13.01,2013-06-05 05:44:00,
2013-06-05 00:49:00,70.2,61.9,29.94,ESE,119,1.0,3.0,75,0.00,,---,0.00,VWS V13.01,2013-06-05 05:49:00,
2013-06-05 00:54:00,70.1,62.2,29.94,ESE,119,1.0,3.0,76,0.00,,---,0.00,VWS V13.01,2013-06-05 05:54:00,
2013-06-05 00:59:00,70.0,62.1,29.94,ESE,119,0.0,3.0,76,0.00,,---,0.00,VWS V13.01,2013-06-05 05:59:00,
2013-06-05 01:04:00,69.9,62.0,29.94,ESE,119,0.0,3.0,76,0.00,,---,0.00,VWS V13.01,2013-06-05 06:04:00,
2013-06-05 01:09:00,69.8,61.9,29.93,ESE,118,0.0,2.0,76,0.00,,---,0.00,VWS V13.01,2013-06-05 06:09:00,
2013-06-05 01:14:00,69.7,61.8,29.93,ESE,118,0.0,2.0,76,0.00,,---,0.00,VWS V13.01,2013-06-05 06:14:00,
2013-06-05 01:19:00,69.6,61.7,29.93,ESE,118,0.0,2.0,76,0.00,,---,0.00,VWS V13.01,2013-06-05 06:19:00,
2013-06-05 01:24:00,69.5,62.0,29.93,ESE,119,0.0,2.0,77,0.00,,---,0.00,VWS V13.01,2013-06-05 06:24:00,
2013-06-05 01:29:00,69.4,61.9,29.93,ESE,118,0.0,2.0,77,0.00,,---,0.00,VWS V13.01,2013-06-05 06:29:00,
2013-06-05 01:34:00,69.3,61.8,29.93,ESE,119,0.0,2.0,77,0.00,,---,0.00,VWS V13.01,2013-06-05 06:34:00,
2013-06-05 01:39:00,69.3,61.8,29.93,ESE,119,1.0,3.0,77,0.00,,---,0.00,VWS V13.01,2013-06-05 06:39:00,
2013-06-05 01:45:00,69.2,61.7,29.92,ESE,119,0.0,3.0,77,0.00,,---,0.00,VWS V13.01,2013-06-05 06:45:00,
2013-06-05 01:50:00,69.1,61.6,29.92,ESE,118,0.0,3.0,77,0.00,,---,0.00,VWS V13.01,2013-06-05 06:50:00,
2013-06-05 01:55:00,69.0,61.9,29.93,ESE,119,0.0,3.0,78,0.00,,---,0.00,VWS V13.01,2013-06-05 06:55:00,
2013-06-05 02:00:00,68.9,61.8,29.92,ESE,119,0.0,3.0,78,0.00,,---,0.00,VWS V13.01,2013-06-05 07:00:00,
2013-06-05 02:05:00,68.8,61.7,29.92,ESE,119,0.0,3.0,78,0.00,,---,0.00,VWS V13.01,2013-06-05 07:05:00,
2013-06-05 02:10:00,68.7,61.6,29.92,ESE,119,0.0,0.0,78,0.00,,---,0.00,VWS V13.01,2013-06-05 07:10:00,
2013-06-05 02:15:00,68.6,61.5,29.92,ESE,119,0.0,0.0,78,0.00,,---,0.00,VWS V13.01,2013-06-05 07:15:00,
2013-06-05 02:20:00,68.5,61.4,29.92,ESE,119,0.0,0.0,78,0.00,,---,0.00,VWS V13.01,2013-06-05 07:20:00,
2013-06-05 02:25:00,68.4,61.6,29.92,ESE,119,0.0,0.0,79,0.00,,---,0.00,VWS V13.01,2013-06-05 07:25:00,
2013-06-05 02:30:00,68.3,61.2,29.92,ESE,118,0.0,0.0,78,0.00,,---,0.00,VWS V13.01,2013-06-05 07:30:00,
2013-06-05 02:35:00,68.1,61.3,29.92,ESE,118,0.0,0.0,79,0.00,,---,0.00,VWS V13.01,2013-06-05 07:35:00,
2013-06-05 02:40:00,68.0,61.2,29.92,ESE,119,0.0,0.0,79,0.00,,---,0.00,VWS V13.01,2013-06-05 07:40:00,
2013-06-05 02:46:00,67.9,61.5,29.92,ESE,118,0.0,0.0,80,0.00,,---,0.00,VWS V13.01,2013-06-05 07:46:00,
2013-06-05 02:51:00,67.8,61.4,29.92,ESE,119,0.0,0.0,80,0.00,,---,0.00,VWS V13.01,2013-06-05 07:51:00,
2013-06-05 02:56:00,67.7,61.3,29.92,ESE,119,0.0,0.0,80,0.00,,---,0.00,VWS V13.01,2013-06-05 07:56:00,
2013-06-05 03:01:00,67.5,61.5,29.91,ESE,119,0.0,0.0,81,0.00,,---,0.00,VWS V13.01,2013-06-05 08:01:00,
2013-06-05 03:06:00,67.4,61.4,29.91,ESE,119,0.0,0.0,81,0.00,,---,0.00,VWS V13.01,2013-06-05 08:06:00,
2013-06-05 03:11:00,67.3,61.3,29.91,ESE,119,0.0,0.0,81,0.00,,---,0.00,VWS V13.01,2013-06-05 08:11:00,
2013-06-05 03:16:00,67.2,61.5,29.91,ESE,119,3.0,4.0,82,0.00,,---,0.00,VWS V13.01,2013-06-05 08:16:00,
2013-06-05 03:21:00,67.2,61.5,29.91,ESE,119,0.0,4.0,82,0.00,,---,0.00,VWS V13.01,2013-06-05 08:21:00,
2013-06-05 03:26:00,67.1,61.8,29.91,ESE,119,0.0,4.0,83,0.00,,---,0.00,VWS V13.01,2013-06-05 08:26:00,
2013-06-05 03:32:00,67.0,61.7,29.91,ESE,119,0.0,4.0,83,0.00,,---,0.00,VWS V13.01,2013-06-05 08:32:00,
2013-06-05 03:37:00,67.0,61.7,29.91,ESE,119,0.0,0.0,83,0.00,,---,0.00,VWS V13.01,2013-06-05 08:37:00,
2013-06-05 03:42:00,66.9,61.6,29.91,ESE,119,0.0,0.0,83,0.00,,---,0.00,VWS V13.01,2013-06-05 08:42:00,
2013-06-05 03:47:00,66.9,61.6,29.91,ESE,119,2.0,3.0,83,0.00,,---,0.00,VWS V13.01,2013-06-05 08:47:00,
2013-06-05 03:52:00,66.8,61.5,29.91,ESE,119,0.0,3.0,83,0.00,,---,0.00,VWS V13.01,2013-06-05 08:52:00,
2013-06-05 03:57:00,66.7,61.4,29.91,ESE,119,0.0,3.0,83,0.00,,---,0.00,VWS V13.01,2013-06-05 08:57:00,
2013-06-05 04:02:00,66.7,61.4,29.90,ESE,119,0.0,3.0,83,0.00,,---,0.00,VWS V13.01,2013-06-05 09:02:00,
2013-06-05 04:07:00,66.7,61.4,29.90,ESE,118,0.0,1.0,83,0.00,,---,0.00,VWS V13.01,2013-06-05 09:07:00,
2013-06-05 04:12:00,66.6,61.3,29.90,ESE,119,1.0,3.0,83,0.00,,---,0.00,VWS V13.01,2013-06-05 09:12:00,
2013-06-05 04:17:00,66.5,61.5,29.90,ESE,119,0.0,3.0,84,0.00,,---,0.00,VWS V13.01,2013-06-05 09:17:00,
2013-06-05 04:22:00,66.5,61.5,29.90,ESE,118,0.0,3.0,84,0.00,,---,0.00,VWS V13.01,2013-06-05 09:22:00,
2013-06-05 04:27:00,66.4,61.4,29.90,ESE,119,0.0,3.0,84,0.00,,---,0.00,VWS V13.01,2013-06-05 09:27:00,
2013-06-05 04:32:00,66.3,61.3,29.89,ESE,119,1.0,3.0,84,0.00,,---,0.00,VWS V13.01,2013-06-05 09:32:00,
2013-06-05 04:37:00,66.3,61.3,29.90,ESE,119,0.0,0.0,84,0.00,,---,0.00,VWS V13.01,2013-06-05 09:37:00,
2013-06-05 04:43:00,66.2,61.2,29.89,ESE,119,0.0,0.0,84,0.00,,---,0.00,VWS V13.01,2013-06-05 09:43:00,
2013-06-05 04:48:00,66.1,61.1,29.89,ESE,119,0.0,2.0,84,0.00,,---,0.00,VWS V13.01,2013-06-05 09:48:00,
2013-06-05 04:53:00,66.0,61.0,29.89,ESE,119,0.0,2.0,84,0.00,,---,0.00,VWS V13.01,2013-06-05 09:53:00,
2013-06-05 04:58:00,66.0,61.0,29.89,ESE,119,0.0,2.0,84,0.00,,---,0.00,VWS V13.01,2013-06-05 09:58:00,
2013-06-05 05:03:00,65.9,60.9,29.89,ESE,119,0.0,3.0,84,0.00,,---,0.00,VWS V13.01,2013-06-05 10:03:00,
2013-06-05 05:08:00,65.9,60.9,29.89,ESE,118,0.0,0.0,84,0.00,,---,0.00,VWS V13.01,2013-06-05 10:08:00,
2013-06-05 05:13:00,65.8,61.2,29.89,ESE,119,1.0,1.0,85,0.00,,---,0.00,VWS V13.01,2013-06-05 10:13:00,
2013-06-05 05:18:00,65.7,61.1,29.88,ESE,118,0.0,3.0,85,0.00,,---,0.00,VWS V13.01,2013-06-05 10:18:00,
2013-06-05 05:23:00,65.7,61.1,29.88,ESE,119,0.0,3.0,85,0.00,,---,0.00,VWS V13.01,2013-06-05 10:23:00,
2013-06-05 05:28:00,65.6,61.0,29.88,ESE,119,0.0,3.0,85,0.00,,---,0.00,VWS V13.01,2013-06-05 10:28:00,
2013-06-05 05:33:00,65.6,61.0,29.89,ESE,119,0.0,3.0,85,0.00,,---,0.00,VWS V13.01,2013-06-05 10:33:00,
2013-06-05 05:38:00,65.5,61.2,29.89,ESE,119,2.0,3.0,86,0.00,,---,0.00,VWS V13.01,2013-06-05 10:38:00,
2013-06-05 05:43:00,65.6,61.3,29.90,ESE,119,0.0,4.0,86,0.00,,---,0.00,VWS V13.01,2013-06-05 10:43:00,
2013-06-05 05:48:00,65.6,61.3,29.90,ESE,119,2.0,4.0,86,0.00,,---,0.00,VWS V13.01,2013-06-05 10:48:00,
2013-06-05 05:53:00,65.6,61.3,29.90,ESE,119,2.0,4.0,86,0.00,,---,0.00,VWS V13.01,2013-06-05 10:53:00,
2013-06-05 05:58:00,65.5,61.2,29.90,ESE,118,3.0,4.0,86,0.00,,---,0.00,VWS V13.01,2013-06-05 10:58:00,
2013-06-05 06:03:00,65.5,61.2,29.90,ESE,118,1.0,4.0,86,0.00,,---,0.00,VWS V13.01,2013-06-05 11:03:00,
2013-06-05 06:08:00,65.5,61.2,29.90,ESE,119,2.0,3.0,86,0.00,,---,0.00,VWS V13.01,2013-06-05 11:08:00,
2013-06-05 06:13:00,65.5,61.2,29.90,ESE,119,0.0,3.0,86,0.00,,---,0.00,VWS V13.01,2013-06-05 11:13:00,
2013-06-05 06:18:00,65.5,61.2,29.90,ESE,119,1.0,4.0,86,0.00,,---,0.00,VWS V13.01,2013-06-05 11:18:00,
2013-06-05 06:23:00,65.5,61.2,29.91,ESE,118,0.0,4.0,86,0.00,,---,0.00,VWS V13.01,2013-06-05 11:23:00,
2013-06-05 06:28:00,65.5,61.2,29.91,ESE,119,0.0,4.0,86,0.00,,---,0.00,VWS V13.01,2013-06-05 11:28:00,
2013-06-05 06:34:00,65.5,61.2,29.91,ESE,118,0.0,4.0,86,0.00,,---,0.00,VWS V13.01,2013-06-05 11:34:00,
2013-06-05 06:39:00,65.5,61.2,29.92,ESE,119,0.0,0.0,86,0.00,,---,0.00,VWS V13.01,2013-06-05 11:39:00,
2013-06-05 06:44:00,65.6,61.6,29.92,ESE,119,0.0,0.0,87,0.00,,---,0.00,VWS V13.01,2013-06-05 11:44:00,
2013-06-05 06:49:00,65.7,61.7,29.92,ESE,118,0.0,0.0,87,0.00,,---,0.00,VWS V13.01,2013-06-05 11:49:00,
2013-06-05 06:54:00,65.7,61.7,29.92,NE,38,0.0,0.0,87,0.00,,---,0.00,VWS V13.01,2013-06-05 11:54:00,
2013-06-05 06:59:00,65.8,61.8,29.92,NE,38,0.0,0.0,87,0.00,,---,0.00,VWS V13.01,2013-06-05 11:59:00,
2013-06-05 07:04:00,65.9,61.9,29.93,NE,38,0.0,0.0,87,0.00,,---,0.00,VWS V13.01,2013-06-05 12:04:00,
2013-06-05 07:09:00,66.0,62.0,29.93,NE,38,0.0,0.0,87,0.00,,---,0.00,VWS V13.01,2013-06-05 12:09:00,
2013-06-05 07:14:00,66.1,62.1,29.92,NE,38,0.0,4.0,87,0.00,,---,0.00,VWS V13.01,2013-06-05 12:14:00,
2013-06-05 07:19:00,66.3,62.3,29.92,ENE,75,3.0,6.0,87,0.00,,---,0.00,VWS V13.01,2013-06-05 12:19:00,
2013-06-05 07:24:00,66.4,62.4,29.92,ENE,78,4.0,6.0,87,0.00,,---,0.00,VWS V13.01,2013-06-05 12:24:00,
2013-06-05 07:29:00,66.6,62.3,29.92,ENE,75,2.0,6.0,86,0.00,,---,0.00,VWS V13.01,2013-06-05 12:29:00,
2013-06-05 07:34:00,66.6,62.3,29.92,ENE,75,0.0,6.0,86,0.00,,---,0.00,VWS V13.01,2013-06-05 12:34:00,
2013-06-05 07:39:00,66.7,62.4,29.92,ENE,75,0.0,0.0,86,0.00,,---,0.00,VWS V13.01,2013-06-05 12:39:00,
2013-06-05 07:44:00,66.8,62.5,29.92,ENE,75,0.0,0.0,86,0.00,,---,0.00,VWS V13.01,2013-06-05 12:44:00,
2013-06-05 07:50:00,67.0,62.7,29.93,ENE,75,0.0,0.0,86,0.00,,---,0.00,VWS V13.01,2013-06-05 12:50:00,
2013-06-05 07:55:00,67.2,62.9,29.93,ENE,75,0.0,0.0,86,0.00,,---,0.00,VWS V13.01,2013-06-05 12:55:00,
2013-06-05 08:00:00,67.5,63.5,29.93,ENE,75,0.0,0.0,87,0.00,,---,0.00,VWS V13.01,2013-06-05 13:00:00,
2013-06-05 08:05:00,67.9,63.9,29.94,ENE,75,0.0,0.0,87,0.00,,---,0.00,VWS V13.01,2013-06-05 13:05:00,
2013-06-05 08:10:00,68.2,64.2,29.94,ENE,75,0.0,0.0,87,0.00,,---,0.00,VWS V13.01,2013-06-05 13:10:00,
2013-06-05 08:15:00,68.6,64.2,29.94,ENE,75,0.0,0.0,86,0.00,,---,0.00,VWS V13.01,2013-06-05 13:15:00,
2013-06-05 08:20:00,68.8,64.1,29.94,ENE,75,0.0,0.0,85,0.00,,---,0.00,VWS V13.01,2013-06-05 13:20:00,
2013-06-05 08:25:00,69.1,64.4,29.94,ENE,75,0.0,0.0,85,0.00,,---,0.00,VWS V13.01,2013-06-05 13:25:00,
2013-06-05 08:30:00,69.4,64.4,29.94,ENE,75,0.0,0.0,84,0.00,,---,0.00,VWS V13.01,2013-06-05 13:30:00,
2013-06-05 08:35:00,69.7,64.3,29.94,ENE,75,2.0,2.0,83,0.00,,---,0.00,VWS V13.01,2013-06-05 13:35:00,
2013-06-05 08:40:00,70.0,64.6,29.94,ENE,75,0.0,2.0,83,0.00,,---,0.00,VWS V13.01,2013-06-05 13:40:00,
2013-06-05 08:45:00,70.3,64.9,29.94,ENE,75,3.0,3.0,83,0.00,,---,0.00,VWS V13.01,2013-06-05 13:45:00,
2013-06-05 08:50:00,70.5,64.8,29.94,ENE,75,0.0,3.0,82,0.00,,---,0.00,VWS V13.01,2013-06-05 13:50:00,
2013-06-05 08:55:00,70.8,65.0,29.94,ENE,75,0.0,3.0,82,0.00,,---,0.00,VWS V13.01,2013-06-05 13:55:00,
2013-06-05 09:00:00,71.2,65.4,29.94,ENE,75,0.0,3.0,82,0.00,,---,0.00,VWS V13.01,2013-06-05 14:00:00,
2013-06-05 09:05:00,71.4,65.6,29.94,ENE,75,2.0,3.0,82,0.00,,---,0.00,VWS V13.01,2013-06-05 14:05:00,
2013-06-05 09:10:00,71.7,65.6,29.95,ENE,75,0.0,0.0,81,0.00,,---,0.00,VWS V13.01,2013-06-05 14:10:00,
2013-06-05 09:15:00,71.8,65.3,29.95,ENE,75,0.0,0.0,80,0.00,,---,0.00,VWS V13.01,2013-06-05 14:15:00,
2013-06-05 09:20:00,71.9,65.4,29.95,ENE,75,0.0,0.0,80,0.00,,---,0.00,VWS V13.01,2013-06-05 14:20:00,
2013-06-05 09:25:00,72.0,65.1,29.95,ENE,75,0.0,0.0,79,0.00,,---,0.00,VWS V13.01,2013-06-05 14:25:00,
2013-06-05 09:31:00,72.1,65.2,29.95,ENE,75,0.0,0.0,79,0.00,,---,0.00,VWS V13.01,2013-06-05 14:31:00,
2013-06-05 09:36:00,72.3,65.8,29.95,ENE,75,0.0,0.0,80,0.00,,---,0.00,VWS V13.01,2013-06-05 14:36:00,
2013-06-05 09:41:00,72.4,65.9,29.95,ENE,75,0.0,0.0,80,0.00,,---,0.00,VWS V13.01,2013-06-05 14:41:00,
2013-06-05 09:46:00,72.5,66.0,29.95,ENE,75,0.0,0.0,80,0.00,,---,0.00,VWS V13.01,2013-06-05 14:46:00,
2013-06-05 09:51:00,72.6,66.1,29.95,ENE,75,0.0,0.0,80,0.00,,---,0.00,VWS V13.01,2013-06-05 14:51:00,
2013-06-05 09:56:00,72.6,66.1,29.94,ENE,75,0.0,1.0,80,0.00,,---,0.00,VWS V13.01,2013-06-05 14:56:00,
2013-06-05 10:02:00,72.7,66.2,29.95,ENE,75,0.0,3.0,80,0.00,,---,0.00,VWS V13.01,2013-06-05 15:02:00,
2013-06-05 10:07:00,72.9,66.4,29.96,ENE,75,0.0,0.0,80,0.00,,---,0.00,VWS V13.01,2013-06-05 15:07:00,
2013-06-05 10:12:00,73.1,66.6,29.97,ENE,75,2.0,2.0,80,0.00,,---,0.00,VWS V13.01,2013-06-05 15:12:00,
2013-06-05 10:17:00,73.1,66.2,29.98,WNW,302,3.0,14.0,79,0.00,,---,0.00,VWS V13.01,2013-06-05 15:17:00,
2013-06-05 10:22:00,72.8,65.6,30.00,West,264,5.0,14.0,78,0.00,,---,0.00,VWS V13.01,2013-06-05 15:22:00,
2013-06-05 10:27:00,72.3,65.4,29.99,NW,322,2.0,14.0,79,0.00,,---,0.00,VWS V13.01,2013-06-05 15:27:00,
2013-06-05 10:32:00,72.0,65.5,29.99,NNW,337,3.0,14.0,80,0.00,,---,0.00,VWS V13.01,2013-06-05 15:32:00,
2013-06-05 10:37:00,71.8,65.3,29.99,NW,307,0.0,3.0,80,0.00,,---,0.00,VWS V13.01,2013-06-05 15:37:00,
2013-06-05 10:42:00,71.7,65.2,29.99,SW,215,0.0,7.0,80,0.00,,---,0.00,VWS V13.01,2013-06-05 15:42:00,
2013-06-05 10:47:00,71.8,65.7,29.99,West,261,3.0,11.0,81,0.00,,---,0.00,VWS V13.01,2013-06-05 15:47:00,
2013-06-05 10:52:00,72.0,65.9,29.99,West,273,0.0,11.0,81,0.00,,---,0.00,VWS V13.01,2013-06-05 15:52:00,
2013-06-05 10:57:00,72.1,65.9,29.97,North,360,4.0,11.0,81,0.00,,---,0.00,VWS V13.01,2013-06-05 15:57:00,
2013-06-05 11:02:00,72.2,66.1,29.97,NW,304,0.0,11.0,81,0.00,,---,0.00,VWS V13.01,2013-06-05 16:02:00,
2013-06-05 11:07:00,72.4,66.2,29.97,West,273,0.0,3.0,81,0.00,,---,0.00,VWS V13.01,2013-06-05 16:07:00,
2013-06-05 11:13:00,72.6,66.4,29.97,WSW,244,0.0,3.0,81,0.00,,---,0.00,VWS V13.01,2013-06-05 16:13:00,
2013-06-05 11:18:00,72.9,66.4,29.97,West,272,0.0,5.0,80,0.00,,---,0.00,VWS V13.01,2013-06-05 16:18:00,
2013-06-05 11:23:00,72.9,66.0,29.94,SSE,155,0.0,5.0,79,0.00,,---,0.00,VWS V13.01,2013-06-05 16:23:00,
2013-06-05 11:28:00,73.1,66.2,29.94,SSE,156,0.0,5.0,79,0.00,,---,0.00,VWS V13.01,2013-06-05 16:28:00,
2013-06-05 11:33:00,73.2,65.9,29.95,SSE,156,0.0,5.0,78,0.00,,---,0.00,VWS V13.01,2013-06-05 16:33:00,
2013-06-05 11:38:00,73.3,66.0,29.95,SSE,156,0.0,0.0,78,0.00,,---,0.00,VWS V13.01,2013-06-05 16:38:00,
2013-06-05 11:43:00,73.3,66.0,29.95,SSE,164,0.0,3.0,78,0.00,,---,0.00,VWS V13.01,2013-06-05 16:43:00,
2013-06-05 11:48:00,73.3,66.0,29.93,SSE,166,0.0,3.0,78,0.00,,---,0.00,VWS V13.01,2013-06-05 16:48:00,
2013-06-05 11:53:00,73.3,66.0,29.93,SSE,165,0.0,3.0,78,0.00,,---,0.00,VWS V13.01,2013-06-05 16:53:00,
2013-06-05 11:58:00,73.3,65.7,29.93,SSE,166,0.0,3.0,77,0.00,,---,0.00,VWS V13.01,2013-06-05 16:58:00,
2013-06-05 12:03:00,73.3,65.7,29.92,SSE,166,0.0,3.0,77,0.00,,---,0.00,VWS V13.01,2013-06-05 17:03:00,
2013-06-05 12:08:00,73.6,66.3,29.91,SSE,166,0.0,0.0,78,0.00,,---,0.00,VWS V13.01,2013-06-05 17:08:00,
2013-06-05 12:13:00,73.8,66.5,29.91,SSE,166,0.0,0.0,78,0.00,,---,0.00,VWS V13.01,2013-06-05 17:13:00,
2013-06-05 12:19:00,74.0,66.3,29.91,SSE,165,0.0,0.0,77,0.00,,---,0.00,VWS V13.01,2013-06-05 17:19:00,
2013-06-05 12:24:00,74.2,66.5,29.92,SSE,166,3.0,3.0,77,0.00,,---,0.00,VWS V13.01,2013-06-05 17:24:00,
2013-06-05 12:29:00,74.3,66.6,29.92,SW,228,0.0,5.0,77,0.00,,---,0.00,VWS V13.01,2013-06-05 17:29:00,
2013-06-05 12:34:00,74.3,66.6,29.92,SW,227,0.0,5.0,77,0.00,,---,0.00,VWS V13.01,2013-06-05 17:34:00,
2013-06-05 12:39:00,74.5,67.2,29.93,WSW,256,0.0,4.0,78,0.00,,---,0.00,VWS V13.01,2013-06-05 17:39:00,
2013-06-05 12:44:00,74.6,66.9,29.92,West,269,0.0,4.0,77,0.00,,---,0.00,VWS V13.01,2013-06-05 17:44:00,
2013-06-05 12:49:00,74.6,66.5,29.92,West,264,0.0,4.0,76,0.00,,---,0.00,VWS V13.01,2013-06-05 17:49:00,
2013-06-05 12:54:00,74.6,66.9,29.91,West,260,0.0,4.0,77,0.00,,---,0.00,VWS V13.01,2013-06-05 17:54:00,
2013-06-05 12:59:00,74.4,66.3,29.89,South,176,0.0,4.0,76,0.00,,---,0.00,VWS V13.01,2013-06-05 17:59:00,
2013-06-05 13:04:00,74.2,66.5,29.85,South,179,8.0,20.0,77,0.00,,---,0.00,VWS V13.01,2013-06-05 18:04:00,
2013-06-05 13:09:00,73.9,66.2,29.80,South,175,11.0,26.0,77,0.00,,---,0.00,VWS V13.01,2013-06-05 18:09:00,
2013-06-05 13:14:00,73.8,66.5,29.80,SW,234,9.0,26.0,78,0.00,,---,0.00,VWS V13.01,2013-06-05 18:14:00,
2013-06-05 13:19:00,73.9,66.6,29.81,SSE,158,5.0,26.0,78,0.00,,---,0.00,VWS V13.01,2013-06-05 18:19:00,
2013-06-05 13:24:00,73.9,66.2,29.81,South,187,2.0,26.0,77,0.00,,---,0.00,VWS V13.01,2013-06-05 18:24:00,
2013-06-05 13:29:00,74.1,66.4,29.81,SSW,197,7.0,26.0,77,0.00,,---,0.00,VWS V13.01,2013-06-05 18:29:00,
2013-06-05 13:34:00,74.4,66.7,29.81,SE,133,0.0,26.0,77,0.00,,---,0.00,VWS V13.01,2013-06-05 18:34:00,
2013-06-05 13:40:00,74.6,66.9,29.81,SSE,167,0.0,10.0,77,0.00,,---,0.00,VWS V13.01,2013-06-05 18:40:00,
2013-06-05 13:45:00,74.8,67.1,29.81,East,83,0.0,10.0,77,0.00,,---,0.00,VWS V13.01,2013-06-05 18:45:00,
2013-06-05 13:50:00,75.0,66.9,29.80,East,83,0.0,10.0,76,0.00,,---,0.00,VWS V13.01,2013-06-05 18:50:00,
2013-06-05 13:55:00,75.3,67.2,29.80,SE,142,0.0,10.0,76,0.00,,---,0.00,VWS V13.01,2013-06-05 18:55:00,
2013-06-05 14:00:00,75.6,67.9,29.80,East,86,3.0,10.0,77,0.00,,---,0.00,VWS V13.01,2013-06-05 19:00:00,
2013-06-05 14:05:00,76.1,67.6,29.78,NE,46,5.0,10.0,75,0.00,,---,0.00,VWS V13.01,2013-06-05 19:05:00,
2013-06-05 14:10:00,76.8,68.3,29.78,NE,51,4.0,10.0,75,0.00,,---,0.00,VWS V13.01,2013-06-05 19:10:00,
2013-06-05 14:15:00,77.3,68.4,29.78,NE,43,5.0,10.0,74,0.00,,---,0.00,VWS V13.01,2013-06-05 19:15:00,
2013-06-05 14:20:00,77.6,68.3,29.78,NE,56,4.0,10.0,73,0.00,,---,0.00,VWS V13.01,2013-06-05 19:20:00,
2013-06-05 14:25:00,77.7,68.4,29.79,ENE,57,2.0,10.0,73,0.00,,---,0.00,VWS V13.01,2013-06-05 19:25:00,
2013-06-05 14:30:00,77.7,68.0,29.82,NE,45,0.0,10.0,72,0.00,,---,0.00,VWS V13.01,2013-06-05 19:30:00,
2013-06-05 14:35:00,77.7,68.4,29.82,NE,46,0.0,10.0,73,0.00,,---,0.00,VWS V13.01,2013-06-05 19:35:00,
2013-06-05 14:40:00,77.7,67.6,29.82,NE,46,1.0,4.0,71,0.00,,---,0.00,VWS V13.01,2013-06-05 19:40:00,
2013-06-05 14:45:00,77.6,67.5,29.82,NE,46,0.0,4.0,71,0.00,,---,0.00,VWS V13.01,2013-06-05 19:45:00,
2013-06-05 14:50:00,77.9,67.8,29.82,West,269,0.0,4.0,71,0.00,,---,0.00,VWS V13.01,2013-06-05 19:50:00,
2013-06-05 14:55:00,78.1,67.9,29.82,NW,320,1.0,7.0,71,0.00,,---,0.00,VWS V13.01,2013-06-05 19:55:00,
2013-06-05 15:00:00,78.2,67.6,29.82,NW,320,1.0,7.0,70,0.00,,---,0.00,VWS V13.01,2013-06-05 20:00:00,
2013-06-05 15:05:00,78.5,68.7,29.81,NW,307,3.0,7.0,72,0.00,,---,0.00,VWS V13.01,2013-06-05 20:05:00,
2013-06-05 15:10:00,78.9,68.3,29.82,NNW,340,0.0,3.0,70,0.00,,---,0.00,VWS V13.01,2013-06-05 20:10:00,
2013-06-05 15:15:00,79.3,68.7,29.82,NW,307,4.0,4.0,70,0.00,,---,0.00,VWS V13.01,2013-06-05 20:15:00,
2013-06-05 15:20:00,80.1,69.4,29.81,NW,307,0.0,5.0,70,0.00,,---,0.00,VWS V13.01,2013-06-05 20:20:00,
2013-06-05 15:25:00,80.5,69.4,29.82,NW,311,0.0,5.0,69,0.00,,---,0.00,VWS V13.01,2013-06-05 20:25:00,
2013-06-05 15:30:00,81.3,71.0,29.82,NW,311,0.0,5.0,71,0.00,,---,0.00,VWS V13.01,2013-06-05 20:30:00,
2013-06-05 15:35:00,80.7,69.2,29.82,NW,310,0.0,5.0,68,0.00,,---,0.00,VWS V13.01,2013-06-05 20:35:00,
2013-06-05 15:40:00,80.4,68.4,29.83,NW,310,0.0,4.0,67,0.00,,---,0.00,VWS V13.01,2013-06-05 20:40:00,
2013-06-05 15:45:00,80.5,69.4,29.83,WNW,296,0.0,4.0,69,0.00,,---,0.00,VWS V13.01,2013-06-05 20:45:00,
2013-06-05 15:50:00,80.5,68.5,29.83,NE,48,1.0,4.0,67,0.00,,---,0.00,VWS V13.01,2013-06-05 20:50:00,
2013-06-05 15:55:00,80.4,67.6,29.83,NW,316,3.0,4.0,65,0.00,,---,0.00,VWS V13.01,2013-06-05 20:55:00,
2013-06-05 16:01:00,81.0,69.0,29.83,West,273,3.0,4.0,67,0.00,,---,0.00,VWS V13.01,2013-06-05 21:01:00,
2013-06-05 16:06:00,80.9,68.0,29.83,West,280,0.0,4.0,65,0.00,,---,0.00,VWS V13.01,2013-06-05 21:06:00,
2013-06-05 16:11:00,80.8,67.5,29.83,NW,321,1.0,4.0,64,0.00,,---,0.00,VWS V13.01,2013-06-05 21:11:00,
2013-06-05 16:16:00,81.1,68.7,29.83,NW,318,0.0,6.0,66,0.00,,---,0.00,VWS V13.01,2013-06-05 21:16:00,
2013-06-05 16:21:00,81.4,68.1,29.83,NW,317,0.0,6.0,64,0.00,,---,0.00,VWS V13.01,2013-06-05 21:21:00,
2013-06-05 16:26:00,81.5,67.7,29.83,NW,307,0.0,6.0,63,0.00,,---,0.00,VWS V13.01,2013-06-05 21:26:00,
2013-06-05 16:31:00,81.4,68.1,29.84,NW,304,2.0,6.0,64,0.00,,---,0.00,VWS V13.01,2013-06-05 21:31:00,
2013-06-05 16:36:00,81.3,67.5,29.84,WNW,288,2.0,6.0,63,0.00,,---,0.00,VWS V13.01,2013-06-05 21:36:00,
2013-06-05 16:41:00,81.6,68.2,29.84,NW,310,0.0,3.0,64,0.00,,---,0.00,VWS V13.01,2013-06-05 21:41:00,
2013-06-05 16:46:00,81.7,67.9,29.84,WNW,290,0.0,5.0,63,0.00,,---,0.00,VWS V13.01,2013-06-05 21:46:00,
2013-06-05 16:51:00,81.5,67.7,29.84,NW,317,1.0,6.0,63,0.00,,---,0.00,VWS V13.01,2013-06-05 21:51:00,
2013-06-05 16:56:00,81.4,67.6,29.85,WNW,291,0.0,6.0,63,0.00,,---,0.00,VWS V13.01,2013-06-05 21:56:00,
2013-06-05 17:01:00,81.6,68.7,29.84,WSW,256,0.0,6.0,65,0.00,,---,0.00,VWS V13.01,2013-06-05 22:01:00,
2013-06-05 17:06:00,81.6,68.2,29.84,West,274,0.0,0.0,64,0.00,,---,0.00,VWS V13.01,2013-06-05 22:06:00,
2013-06-05 17:12:00,81.1,68.2,29.84,South,179,0.0,6.0,65,0.00,,---,0.00,VWS V13.01,2013-06-05 22:12:00,
2013-06-05 17:17:00,80.7,67.8,29.84,West,270,2.0,11.0,65,0.00,,---,0.00,VWS V13.01,2013-06-05 22:17:00,
2013-06-05 17:22:00,80.9,68.5,29.84,NNW,331,0.0,12.0,66,0.00,,---,0.00,VWS V13.01,2013-06-05 22:22:00,
2013-06-05 17:27:00,80.8,67.9,29.84,WNW,302,3.0,12.0,65,0.00,,---,0.00,VWS V13.01,2013-06-05 22:27:00,
2013-06-05 17:32:00,80.7,67.8,29.83,NW,306,1.0,12.0,65,0.00,,---,0.00,VWS V13.01,2013-06-05 22:32:00,
2013-06-05 17:37:00,80.8,67.9,29.83,WNW,294,0.0,7.0,65,0.00,,---,0.00,VWS V13.01,2013-06-05 22:37:00,
2013-06-05 17:42:00,81.0,67.7,29.83,NW,314,0.0,7.0,64,0.00,,---,0.00,VWS V13.01,2013-06-05 22:42:00,
2013-06-05 17:47:00,81.0,68.1,29.83,West,276,1.0,9.0,65,0.00,,---,0.00,VWS V13.01,2013-06-05 22:47:00,
2013-06-05 17:52:00,80.9,67.6,29.83,WSW,253,2.0,9.0,64,0.00,,---,0.00,VWS V13.01,2013-06-05 22:52:00,
2013-06-05 17:57:00,80.9,68.0,29.82,NW,321,0.0,12.0,65,0.00,,---,0.00,VWS V13.01,2013-06-05 22:57:00,
2013-06-05 18:02:00,80.7,67.8,29.82,WNW,300,2.0,12.0,65,0.00,,---,0.00,VWS V13.01,2013-06-05 23:02:00,
2013-06-05 18:07:00,80.6,68.2,29.82,NW,320,3.0,4.0,66,0.00,,---,0.00,VWS V13.01,2013-06-05 23:07:00,
2013-06-05 18:13:00,80.6,68.6,29.82,West,281,3.0,7.0,67,0.00,,---,0.00,VWS V13.01,2013-06-05 23:13:00,
2013-06-05 18:18:00,80.5,68.5,29.82,WSW,238,0.0,8.0,67,0.00,,---,0.00,VWS V13.01,2013-06-05 23:18:00,
2013-06-05 18:23:00,80.5,69.0,29.82,NNE,19,0.0,8.0,68,0.00,,---,0.00,VWS V13.01,2013-06-05 23:23:00,
2013-06-05 18:28:00,80.5,69.0,29.82,WNW,303,0.0,8.0,68,0.00,,---,0.00,VWS V13.01,2013-06-05 23:28:00,
2013-06-05 18:33:00,80.5,69.0,29.82,WNW,290,0.0,12.0,68,0.00,,---,0.00,VWS V13.01,2013-06-05 23:33:00,
2013-06-05 18:38:00,80.3,68.8,29.82,WNW,288,0.0,6.0,68,0.00,,---,0.00,VWS V13.01,2013-06-05 23:38:00,
2013-06-05 18:43:00,80.2,69.1,29.82,WNW,289,0.0,7.0,69,0.00,,---,0.00,VWS V13.01,2013-06-05 23:43:00,
2013-06-05 18:48:00,80.1,69.0,29.82,WNW,291,11.0,11.0,69,0.00,,---,0.00,VWS V13.01,2013-06-05 23:48:00,
2013-06-05 18:53:00,80.0,68.9,29.81,NNW,336,0.0,11.0,69,0.00,,---,0.00,VWS V13.01,2013-06-05 23:53:00,
2013-06-05 18:58:00,79.5,69.3,29.82,WNW,294,0.0,11.0,71,0.00,,---,0.00,VWS V13.01,2013-06-05 23:58:00,
2013-06-05 19:03:00,79.4,68.8,29.82,NNW,336,0.0,11.0,70,0.00,,---,0.00,VWS V13.01,2013-06-06 00:03:00,
2013-06-05 19:08:00,79.3,69.1,29.81,West,259,0.0,3.0,71,0.00,,---,0.00,VWS V13.01,2013-06-06 00:08:00,
2013-06-05 19:13:00,79.3,69.1,29.81,NW,308,1.0,4.0,71,0.00,,---,0.00,VWS V13.01,2013-06-06 00:13:00,
2013-06-05 19:18:00,79.1,68.9,29.81,NNW,329,0.0,5.0,71,0.00,,---,0.00,VWS V13.01,2013-06-06 00:18:00,
2013-06-05 19:24:00,79.1,68.9,29.82,WNW,294,0.0,5.0,71,0.00,,---,0.00,VWS V13.01,2013-06-06 00:24:00,
2013-06-05 19:29:00,79.1,68.9,29.82,NW,309,0.0,5.0,71,0.00,,---,0.00,VWS V13.01,2013-06-06 00:29:00,
2013-06-05 19:34:00,79.0,69.2,29.82,NW,309,0.0,5.0,72,0.00,,---,0.00,VWS V13.01,2013-06-06 00:34:00,
2013-06-05 19:39:00,79.0,69.2,29.82,NW,314,0.0,1.0,72,0.00,,---,0.00,VWS V13.01,2013-06-06 00:39:00,
2013-06-05 19:44:00,78.9,69.1,29.82,NNW,331,0.0,3.0,72,0.00,,---,0.00,VWS V13.01,2013-06-06 00:44:00,
2013-06-05 19:49:00,78.7,68.9,29.82,NW,323,0.0,3.0,72,0.00,,---,0.00,VWS V13.01,2013-06-06 00:49:00,
2013-06-05 19:54:00,78.7,69.3,29.82,NW,323,0.0,3.0,73,0.00,,---,0.00,VWS V13.01,2013-06-06 00:54:00,
2013-06-05 19:59:00,78.5,69.1,29.82,NW,323,0.0,3.0,73,0.00,,---,0.00,VWS V13.01,2013-06-06 00:59:00,
2013-06-05 20:04:00,78.3,68.9,29.82,NW,322,0.0,3.0,73,0.00,,---,0.00,VWS V13.01,2013-06-06 01:04:00,
2013-06-05 20:09:00,78.1,69.1,29.82,NW,323,0.0,0.0,74,0.00,,---,0.00,VWS V13.01,2013-06-06 01:09:00,
2013-06-05 20:14:00,77.9,68.9,29.82,NW,323,0.0,0.0,74,0.00,,---,0.00,VWS V13.01,2013-06-06 01:14:00,
2013-06-05 20:19:00,77.6,68.7,29.82,NW,323,0.0,0.0,74,0.00,,---,0.00,VWS V13.01,2013-06-06 01:19:00,
2013-06-05 20:24:00,77.3,68.8,29.83,NW,322,0.0,1.0,75,0.00,,---,0.00,VWS V13.01,2013-06-06 01:24:00,
2013-06-05 20:29:00,77.1,68.6,29.83,NW,322,0.0,1.0,75,0.00,,---,0.00,VWS V13.01,2013-06-06 01:29:00,
2013-06-05 20:34:00,76.9,68.8,29.83,NW,323,0.0,1.0,76,0.00,,---,0.00,VWS V13.01,2013-06-06 01:34:00,
2013-06-05 20:39:00,76.7,68.6,29.82,NW,322,0.0,0.0,76,0.00,,---,0.00,VWS V13.01,2013-06-06 01:39:00,
2013-06-05 20:45:00,76.5,68.4,29.83,NW,322,0.0,0.0,76,0.00,,---,0.00,VWS V13.01,2013-06-06 01:45:00,
2013-06-05 20:50:00,76.3,68.2,29.83,NW,322,0.0,1.0,76,0.00,,---,0.00,VWS V13.01,2013-06-06 01:50:00,
2013-06-05 20:55:00,76.1,68.4,29.83,NW,322,0.0,1.0,77,0.00,,---,0.00,VWS V13.01,2013-06-06 01:55:00,
2013-06-05 21:00:00,75.9,68.2,29.83,NW,322,0.0,1.0,77,0.00,,---,0.00,VWS V13.01,2013-06-06 02:00:00,
2013-06-05 21:05:00,75.7,68.4,29.83,NW,322,0.0,1.0,78,0.00,,---,0.00,VWS V13.01,2013-06-06 02:05:00,
2013-06-05 21:10:00,75.5,68.2,29.83,NW,322,0.0,0.0,78,0.00,,---,0.00,VWS V13.01,2013-06-06 02:10:00,
2013-06-05 21:15:00,75.3,68.3,29.83,NW,322,0.0,0.0,79,0.00,,---,0.00,VWS V13.01,2013-06-06 02:15:00,
2013-06-05 21:20:00,75.1,68.2,29.83,NW,322,0.0,2.0,79,0.00,,---,0.00,VWS V13.01,2013-06-06 02:20:00,
2013-06-05 21:25:00,74.9,67.9,29.83,NW,322,0.0,2.0,79,0.00,,---,0.00,VWS V13.01,2013-06-06 02:25:00,
2013-06-05 21:30:00,74.8,68.2,29.83,NW,322,0.0,2.0,80,0.00,,---,0.00,VWS V13.01,2013-06-06 02:30:00,
2013-06-05 21:35:00,74.6,68.0,29.83,NW,322,0.0,2.0,80,0.00,,---,0.00,VWS V13.01,2013-06-06 02:35:00,
2013-06-05 21:40:00,74.4,67.8,29.83,NW,322,0.0,0.0,80,0.00,,---,0.00,VWS V13.01,2013-06-06 02:40:00,
2013-06-05 21:45:00,74.3,67.7,29.84,NW,322,0.0,2.0,80,0.00,,---,0.00,VWS V13.01,2013-06-06 02:45:00,
2013-06-05 21:50:00,74.2,68.0,29.84,NW,321,0.0,2.0,81,0.00,,---,0.00,VWS V13.01,2013-06-06 02:50:00,
2013-06-05 21:55:00,74.1,67.9,29.84,NNW,329,0.0,4.0,81,0.00,,---,0.00,VWS V13.01,2013-06-06 02:55:00,
2013-06-05 22:00:00,74.0,67.8,29.85,NNW,327,0.0,4.0,81,0.00,,---,0.00,VWS V13.01,2013-06-06 03:00:00,
2013-06-05 22:05:00,73.9,67.7,29.85,NNW,327,0.0,4.0,81,0.00,,---,0.00,VWS V13.01,2013-06-06 03:05:00,
2013-06-05 22:11:00,73.8,68.0,29.85,NNW,328,0.0,0.0,82,0.00,,---,0.00,VWS V13.01,2013-06-06 03:11:00,
2013-06-05 22:16:00,73.7,67.9,29.85,NNW,327,0.0,0.0,82,0.00,,---,0.00,VWS V13.01,2013-06-06 03:16:00,
2013-06-05 22:21:00,73.6,67.8,29.86,NNW,327,0.0,0.0,82,0.00,,---,0.00,VWS V13.01,2013-06-06 03:21:00,
2013-06-05 22:26:00,73.5,67.7,29.86,NNW,327,0.0,0.0,82,0.00,,---,0.00,VWS V13.01,2013-06-06 03:26:00,
2013-06-05 22:31:00,73.4,67.6,29.86,NNW,327,0.0,0.0,82,0.00,,---,0.00,VWS V13.01,2013-06-06 03:31:00,
2013-06-05 22:36:00,73.3,67.8,29.86,NNW,327,0.0,0.0,83,0.00,,---,0.00,VWS V13.01,2013-06-06 03:36:00,
2013-06-05 22:42:00,73.2,67.7,29.86,NNW,327,0.0,1.0,83,0.00,,---,0.00,VWS V13.01,2013-06-06 03:42:00,
2013-06-05 22:47:00,73.1,68.0,29.86,NNW,327,0.0,1.0,84,0.00,,---,0.00,VWS V13.01,2013-06-06 03:47:00,
2013-06-05 22:52:00,73.0,67.9,29.86,NNW,327,0.0,1.0,84,0.00,,---,0.00,VWS V13.01,2013-06-06 03:52:00,
2013-06-05 22:57:00,72.9,67.8,29.86,NNW,327,0.0,1.0,84,0.00,,---,0.00,VWS V13.01,2013-06-06 03:57:00,
2013-06-05 23:01:00,72.8,67.7,29.86,NNW,327,0.0,1.0,84,0.00,,---,0.00,VWS V13.01,2013-06-06 04:01:00,
2013-06-05 23:03:00,72.8,67.7,29.86,NNW,327,0.0,1.0,84,0.00,,---,0.00,VWS V13.01,2013-06-06 04:03:00,
2013-06-05 23:08:00,72.7,67.6,29.86,NNW,327,0.0,0.0,84,0.00,,---,0.00,VWS V13.01,2013-06-06 04:08:00,
2013-06-05 23:13:00,72.6,67.8,29.86,NNW,327,0.0,0.0,85,0.00,,---,0.00,VWS V13.01,2013-06-06 04:13:00,
2013-06-05 23:18:00,72.4,67.6,29.86,NNW,327,0.0,0.0,85,0.00,,---,0.00,VWS V13.01,2013-06-06 04:18:00,
2013-06-05 23:23:00,72.3,67.5,29.87,NNW,327,0.0,0.0,85,0.00,,---,0.00,VWS V13.01,2013-06-06 04:23:00,
2013-06-05 23:28:00,72.1,67.3,29.87,NNW,327,0.0,1.0,85,0.00,,---,0.00,VWS V13.01,2013-06-06 04:28:00,
2013-06-05 23:33:00,72.0,67.2,29.87,NNW,327,0.0,1.0,85,0.00,,---,0.00,VWS V13.01,2013-06-06 04:33:00,
2013-06-05 23:38:00,71.8,67.4,29.87,NNW,327,0.0,0.0,86,0.00,,---,0.00,VWS V13.01,2013-06-06 04:38:00,
2013-06-05 23:44:00,71.7,67.3,29.87,NNW,327,0.0,0.0,86,0.00,,---,0.00,VWS V13.01,2013-06-06 04:44:00,
2013-06-05 23:49:00,71.5,67.1,29.87,NNW,327,0.0,0.0,86,0.00,,---,0.00,VWS V13.01,2013-06-06 04:49:00,
2013-06-05 23:54:00,71.4,67.0,29.87,NNW,327,0.0,0.0,86,0.00,,---,0.00,VWS V13.01,2013-06-06 04:54:00,
2013-06-05 23:59:00,71.3,66.9,29.87,NNW,327,0.0,0.0,86,0.00,,---,0.00,VWS V13.01,2013-06-06 04:59:00,